TimeCST,TemperatureF,Dew PointF,Humidity,Sea Level PressureIn,VisibilityMPH,Wind Direction,Wind SpeedMPH,Gust SpeedMPH,PrecipitationIn,Events,Conditions,WindDirDegrees,DateUTC
12:55 AM,30.0,23.9,78,30.13,10.0,SE,5.8,-,N/A,,Mostly Cloudy,140,2013-01-08 06:55:00
1:55 AM,31.5,24.4,75,30.13,10.0,South,4.6,-,N/A,,Partly Cloudy,170,2013-01-08 07:55:00
2:55 AM,28.6,23.5,81,30.14,10.0,SSE,8.1,-,N/A,,Clear,160,2013-01-08 08:55:00
3:55 AM,30.2,24.4,79,30.14,10.0,South,4.6,-,N/A,,Partly Cloudy,170,2013-01-08 09:55:00
4:55 AM,31.1,24.4,76,30.15,10.0,South,5.8,-,N/A,,Scattered Clouds,180,2013-01-08 10:55:00
5:55 AM,29.8,23.9,79,30.14,10.0,SSE,4.6,-,N/A,,Clear,160,2013-01-08 11:55:00
6:55 AM,26.8,23.0,86,30.17,10.0,SSE,6.9,-,N/A,,Clear,160,2013-01-08 12:55:00
7:55 AM,28.9,24.1,82,30.18,10.0,SSE,6.9,-,N/A,,Clear,160,2013-01-08 13:55:00
8:55 AM,33.3,25.7,74,30.18,10.0,SE,8.1,-,N/A,,Clear,140,2013-01-08 14:55:00
9:55 AM,42.3,25.7,52,30.19,10.0,South,6.9,-,N/A,,Clear,170,2013-01-08 15:55:00
10:55 AM,47.8,24.3,40,30.16,10.0,South,9.2,-,N/A,,Clear,170,2013-01-08 16:55:00
11:55 AM,50.5,24.4,36,30.14,10.0,SSW,6.9,-,N/A,,Clear,200,2013-01-08 17:55:00
12:55 PM,52.5,23.0,32,30.11,10.0,South,10.4,-,N/A,,Scattered Clouds,170,2013-01-08 18:55:00
1:55 PM,55.0,20.5,26,30.08,10.0,South,12.7,18.4,N/A,,Partly Cloudy,170,2013-01-08 19:55:00
2:55 PM,55.0,19.0,24,30.08,10.0,South,9.2,18.4,N/A,,Partly Cloudy,190,2013-01-08 20:55:00
3:55 PM,54.7,20.1,26,30.09,10.0,South,9.2,-,N/A,,Overcast,180,2013-01-08 21:55:00
4:55 PM,52.3,32.5,47,30.09,10.0,South,10.4,17.3,N/A,,Overcast,180,2013-01-08 22:55:00
5:55 PM,51.4,34.2,52,30.10,10.0,South,11.5,-,N/A,,Overcast,170,2013-01-08 23:55:00
6:55 PM,49.6,34.3,56,30.12,10.0,South,6.9,-,N/A,,Overcast,170,2013-01-09 00:55:00
7:55 PM,50.5,37.8,62,30.13,10.0,South,6.9,-,N/A,,Overcast,190,2013-01-09 01:55:00
8:50 PM,50.0,39.2,66,30.15,10.0,SSW,6.9,-,N/A,Rain,Light Rain,200,2013-01-09 02:50:00
8:55 PM,50.7,39.9,67,30.15,10.0,Variable,4.6,-,0.00,Rain,Light Rain,0,2013-01-09 02:55:00
9:27 PM,48.2,42.8,82,30.16,10.0,South,5.8,-,N/A,,Overcast,180,2013-01-09 03:27:00
9:29 PM,48.2,42.8,82,30.16,10.0,South,5.8,-,N/A,,Drizzle,180,2013-01-09 03:29:00
9:39 PM,46.4,42.8,87,30.16,10.0,South,5.8,-,N/A,,Overcast,190,2013-01-09 03:39:00
9:55 PM,47.5,42.3,82,30.16,10.0,South,8.1,-,0.00,,Mostly Cloudy,180,2013-01-09 03:55:00
9:56 PM,48.2,42.8,82,30.16,10.0,South,9.2,-,N/A,Rain,Light Rain,180,2013-01-09 03:56:00
10:53 PM,44.6,44.6,100,30.17,10.0,Variable,6.9,-,N/A,Rain,Light Rain,0,2013-01-09 04:53:00
10:55 PM,45.5,45.3,99,30.17,10.0,SSW,6.9,-,0.04,Rain,Light Rain,200,2013-01-09 04:55:00
11:15 PM,46.4,46.4,100,30.18,9.0,South,5.8,-,N/A,,Light Drizzle,190,2013-01-09 05:15:00
11:18 PM,46.4,46.4,100,30.18,8.0,South,8.1,-,N/A,,Light Drizzle,190,2013-01-09 05:18:00
11:20 PM,46.4,46.4,100,30.18,7.0,South,8.1,-,N/A,,Light Drizzle,190,2013-01-09 05:20:00
11:22 PM,46.4,46.4,100,30.18,7.0,SSW,9.2,-,N/A,,Light Drizzle,200,2013-01-09 05:22:00
11:30 PM,46.4,46.4,100,30.19,7.0,Variable,5.8,-,N/A,Rain,Light Rain,0,2013-01-09 05:30:00
11:31 PM,46.4,46.4,100,30.19,7.0,Variable,5.8,-,N/A,Rain,Light Rain,0,2013-01-09 05:31:00
11:39 PM,46.4,46.4,100,30.19,10.0,SSW,5.8,-,N/A,,Light Drizzle,200,2013-01-09 05:39:00
11:47 PM,46.4,46.4,100,30.19,8.0,South,6.9,-,N/A,Rain,Light Rain,190,2013-01-09 05:47:00
11:55 PM,46.0,46.0,100,30.20,7.0,SSW,5.8,-,0.02,,Light Drizzle,200,2013-01-09 05:55:00